Time,TemperatureF,DewpointF,PressureIn,WindDirection,WindDirectionDegrees,WindSpeedMPH,WindSpeedGustMPH,Humidity,HourlyPrecipIn,Conditions,Clouds,dailyrainin,SoftwareType,DateUTC
2013-06-12 00:00:00,68.6,63.6,29.88,WNW,287,0.0,0.0,84,0.00,,CLR,0.72,VWS V14.00,2013-06-12 04:00:00,
2013-06-12 00:15:00,68.3,62.9,29.88,WNW,287,0.0,0.0,83,0.00,,CLR,0.00,VWS V14.00,2013-06-12 04:15:00,
2013-06-12 00:30:00,67.9,62.2,29.88,WNW,287,0.0,0.0,82,0.00,,CLR,0.00,VWS V14.00,2013-06-12 04:30:00,
2013-06-12 00:45:00,68.3,62.6,29.88,WNW,287,0.0,0.0,82,0.00,,CLR,0.00,VWS V14.00,2013-06-12 04:45:00,
2013-06-12 01:00:00,67.9,62.2,29.86,WNW,287,0.0,0.0,82,0.00,,CLR,0.00,VWS V14.00,2013-06-12 05:00:00,
2013-06-12 01:15:00,67.8,62.5,29.87,WNW,287,0.0,0.0,83,0.00,,CLR,0.00,VWS V14.00,2013-06-12 05:15:00,
2013-06-12 01:30:00,67.6,62.6,29.86,WNW,287,0.0,0.0,84,0.00,,CLR,0.00,VWS V14.00,2013-06-12 05:30:00,
2013-06-12 01:45:00,67.3,62.6,29.86,WNW,287,0.0,0.0,85,0.00,,CLR,0.00,VWS V14.00,2013-06-12 05:45:00,
2013-06-12 02:00:00,66.9,62.2,29.86,WNW,287,0.0,0.0,85,0.00,,CLR,0.00,VWS V14.00,2013-06-12 06:00:00,
2013-06-12 02:15:00,67.6,61.9,29.86,WNW,287,0.0,0.0,82,0.00,,CLR,0.00,VWS V14.00,2013-06-12 06:15:00,
2013-06-12 02:30:00,67.8,62.8,29.85,WNW,287,0.0,0.0,84,0.00,,CLR,0.00,VWS V14.00,2013-06-12 06:30:00,
2013-06-12 02:45:00,67.8,61.8,29.86,WNW,287,0.0,0.0,81,0.00,,CLR,0.00,VWS V14.00,2013-06-12 06:45:00,
2013-06-12 03:00:00,68.3,61.9,29.86,WNW,287,0.0,0.0,80,0.00,,CLR,0.00,VWS V14.00,2013-06-12 07:00:00,
2013-06-12 03:15:00,68.4,61.6,29.86,WNW,287,0.0,0.0,79,0.00,,CLR,0.00,VWS V14.00,2013-06-12 07:15:00,
2013-06-12 03:30:00,68.4,61.6,29.86,WNW,287,0.0,0.0,79,0.00,,CLR,0.00,VWS V14.00,2013-06-12 07:30:00,
2013-06-12 03:45:00,68.3,61.5,29.86,WNW,287,0.0,0.0,79,0.00,,CLR,0.00,VWS V14.00,2013-06-12 07:45:00,
2013-06-12 04:00:00,68.3,61.5,29.87,WNW,287,0.0,0.0,79,0.00,,CLR,0.00,VWS V14.00,2013-06-12 08:00:00,
2013-06-12 04:15:00,68.4,61.3,29.87,WNW,287,0.0,1.0,78,0.00,,CLR,0.00,VWS V14.00,2013-06-12 08:15:00,
2013-06-12 04:30:00,68.4,61.3,29.88,WNW,287,0.0,0.0,78,0.00,,CLR,0.00,VWS V14.00,2013-06-12 08:30:00,
2013-06-12 04:45:00,68.4,61.6,29.88,WNW,287,0.0,1.0,79,0.00,,CLR,0.00,VWS V14.00,2013-06-12 08:45:00,
2013-06-12 05:00:00,68.3,61.5,29.88,WNW,287,0.0,1.0,79,0.00,,CLR,0.00,VWS V14.00,2013-06-12 09:00:00,
2013-06-12 05:15:00,68.3,61.2,29.89,WNW,287,0.0,2.0,78,0.00,,CLR,0.00,VWS V14.00,2013-06-12 09:15:00,
2013-06-12 05:30:00,68.6,61.8,29.89,WNW,287,0.0,0.0,79,0.00,,CLR,0.00,VWS V14.00,2013-06-12 09:30:00,
2013-06-12 05:45:00,68.1,62.1,29.89,WNW,287,0.0,0.0,81,0.00,,CLR,0.00,VWS V14.00,2013-06-12 09:45:00,
2013-06-12 06:00:00,67.9,62.5,29.89,WNW,287,0.0,0.0,83,0.00,,CLR,0.00,VWS V14.00,2013-06-12 10:00:00,
2013-06-12 06:15:00,68.1,63.1,29.90,WNW,287,0.0,0.0,84,0.00,,CLR,0.00,VWS V14.00,2013-06-12 10:15:00,
2013-06-12 06:30:00,70.4,64.7,29.89,WNW,287,0.0,0.0,82,0.00,,CLR,0.00,VWS V14.00,2013-06-12 10:30:00,
2013-06-12 06:45:00,72.7,65.1,29.89,WNW,287,0.0,0.0,77,0.00,,CLR,0.00,VWS V14.00,2013-06-12 10:45:00,
2013-06-12 07:00:00,74.9,66.1,29.88,WNW,287,0.0,0.0,74,0.00,,CLR,0.00,VWS V14.00,2013-06-12 11:00:00,
2013-06-12 07:15:00,76.8,65.9,29.89,WNW,287,0.0,0.0,69,0.00,,CLR,0.00,VWS V14.00,2013-06-12 11:15:00,
2013-06-12 07:30:00,79.0,65.8,29.89,WNW,287,0.0,0.0,64,0.00,,CLR,0.00,VWS V14.00,2013-06-12 11:30:00,
2013-06-12 07:45:00,79.9,67.1,29.89,WNW,291,0.0,2.0,65,0.00,,CLR,0.00,VWS V14.00,2013-06-12 11:45:00,
2013-06-12 08:00:00,80.9,67.6,29.89,WNW,285,0.0,2.0,64,0.00,,CLR,0.00,VWS V14.00,2013-06-12 12:00:00,
2013-06-12 08:15:00,81.6,68.2,29.89,WNW,285,0.0,1.0,64,0.00,,CLR,0.00,VWS V14.00,2013-06-12 12:15:00,
2013-06-12 08:30:00,82.0,67.2,29.89,WNW,285,0.0,1.0,61,0.00,,CLR,0.00,VWS V14.00,2013-06-12 12:30:00,
2013-06-12 08:45:00,81.6,66.9,29.89,WNW,285,0.0,1.0,61,0.00,,CLR,0.00,VWS V14.00,2013-06-12 12:45:00,
2013-06-12 09:00:00,81.4,67.1,29.89,West,280,0.0,2.0,62,0.00,,CLR,0.00,VWS V14.00,2013-06-12 13:00:00,
2013-06-12 09:15:00,81.2,66.9,29.89,West,280,0.0,1.0,62,0.00,,CLR,0.00,VWS V14.00,2013-06-12 13:15:00,
2013-06-12 09:30:00,80.9,68.5,29.89,West,280,0.0,3.0,66,0.00,,CLR,0.00,VWS V14.00,2013-06-12 13:30:00,
2013-06-12 09:45:00,81.8,69.8,29.89,West,281,0.0,2.0,67,0.00,,CLR,0.00,VWS V14.00,2013-06-12 13:45:00,
2013-06-12 10:00:00,82.4,67.1,29.89,West,281,0.0,1.0,60,0.00,,CLR,0.00,VWS V14.00,2013-06-12 14:00:00,
2013-06-12 10:15:00,83.2,68.8,29.89,WNW,289,0.0,2.0,62,0.00,,CLR,0.00,VWS V14.00,2013-06-12 14:15:00,
2013-06-12 10:30:00,84.1,68.7,29.88,WNW,291,0.0,5.0,60,0.00,,CLR,0.00,VWS V14.00,2013-06-12 14:30:00,
2013-06-12 10:45:00,85.3,70.3,29.88,West,274,0.0,3.0,61,0.00,,CLR,0.00,VWS V14.00,2013-06-12 14:45:00,
2013-06-12 11:00:00,86.3,69.3,29.87,WNW,282,1.0,3.0,57,0.00,,FEW035,0.00,VWS V14.00,2013-06-12 15:00:00,
2013-06-12 11:15:00,86.5,67.9,29.87,West,278,1.0,3.0,54,0.00,,FEW035,0.00,VWS V14.00,2013-06-12 15:15:00,
2013-06-12 11:30:00,86.7,70.2,29.86,West,274,1.0,3.0,58,0.00,,FEW035,0.00,VWS V14.00,2013-06-12 15:30:00,
2013-06-12 11:45:00,86.1,67.5,29.87,West,278,0.0,2.0,54,0.00,,FEW035,0.00,VWS V14.00,2013-06-12 15:45:00,
2013-06-12 12:00:00,87.2,71.1,29.87,WNW,282,0.0,3.0,59,0.00,,FEW037,0.00,VWS V14.00,2013-06-12 16:00:00,
2013-06-12 12:15:00,88.6,68.2,29.87,WSW,250,1.0,3.0,51,0.00,,FEW037,0.00,VWS V14.00,2013-06-12 16:15:00,
2013-06-12 12:30:00,88.8,69.5,29.86,West,263,0.0,6.0,53,0.00,,FEW037,0.00,VWS V14.00,2013-06-12 16:30:00,
2013-06-12 12:45:00,89.9,68.2,29.86,WSW,254,0.0,3.0,49,0.00,,FEW037,0.00,VWS V14.00,2013-06-12 16:45:00,
2013-06-12 13:00:00,90.7,70.7,29.86,WSW,254,0.0,2.0,52,0.00,,FEW040,0.00,VWS V14.00,2013-06-12 17:00:00,
2013-06-12 13:15:00,91.0,69.2,29.86,WSW,257,1.0,2.0,49,0.00,,FEW040,0.00,VWS V14.00,2013-06-12 17:15:00,
2013-06-12 13:30:00,90.1,71.2,29.85,West,264,1.0,3.0,54,0.00,,FEW040,0.00,VWS V14.00,2013-06-12 17:30:00,
2013-06-12 13:45:00,89.7,70.9,29.84,West,277,1.0,7.0,54,0.00,,FEW040,0.00,VWS V14.00,2013-06-12 17:45:00,
2013-06-12 14:00:00,90.5,71.6,29.84,West,280,0.0,3.0,54,0.00,,FEW040,0.00,VWS V14.00,2013-06-12 18:00:00,
2013-06-12 14:15:00,90.5,71.6,29.84,West,271,0.0,3.0,54,0.00,,FEW040,0.00,VWS V14.00,2013-06-12 18:15:00,
2013-06-12 14:30:00,90.7,72.3,29.83,West,272,0.0,3.0,55,0.00,,FEW040,0.00,VWS V14.00,2013-06-12 18:30:00,
2013-06-12 14:45:00,91.4,73.5,29.82,West,270,1.0,3.0,56,0.00,,FEW040,0.00,VWS V14.00,2013-06-12 18:45:00,
2013-06-12 15:00:00,91.4,71.9,29.81,West,271,0.0,3.0,53,0.00,,FEW041,0.00,VWS V14.00,2013-06-12 19:00:00,
2013-06-12 15:15:00,91.2,72.8,29.80,WNW,285,1.0,4.0,55,0.00,,FEW041,0.00,VWS V14.00,2013-06-12 19:15:00,
2013-06-12 15:30:00,91.4,71.9,29.80,West,271,1.0,6.0,53,0.00,,FEW041,0.00,VWS V14.00,2013-06-12 19:30:00,
2013-06-12 15:45:00,92.1,71.4,29.80,West,264,1.0,5.0,51,0.00,,FEW041,0.00,VWS V14.00,2013-06-12 19:45:00,
2013-06-12 16:00:00,92.3,72.7,29.80,West,271,0.0,3.0,53,0.00,,FEW045,0.00,VWS V14.00,2013-06-12 20:00:00,
2013-06-12 16:15:00,92.1,73.6,29.80,West,275,0.0,3.0,55,0.00,,FEW045,0.00,VWS V14.00,2013-06-12 20:15:00,
2013-06-12 16:30:00,90.5,72.7,29.79,West,275,0.0,1.0,56,0.00,,FEW045,0.00,VWS V14.00,2013-06-12 20:30:00,
2013-06-12 16:45:00,89.7,74.0,29.80,West,277,0.0,3.0,60,0.00,,FEW045,0.00,VWS V14.00,2013-06-12 20:45:00,
2013-06-12 17:00:00,88.8,75.1,29.79,West,277,0.0,1.0,64,0.00,,FEW045,0.00,VWS V14.00,2013-06-12 21:00:00,
2013-06-12 17:30:00,86.5,75.1,29.79,West,277,0.0,2.0,69,0.00,,FEW045,0.00,VWS V14.00,2013-06-12 21:30:00,
2013-06-12 17:45:00,85.7,73.9,29.79,West,277,0.0,2.0,68,0.00,,FEW045,0.00,VWS V14.00,2013-06-12 21:45:00,
2013-06-12 18:17:00,87.6,74.8,29.80,West,277,0.0,1.0,66,0.00,,FEW045,0.00,VWS V14.00,2013-06-12 22:17:00,
2013-06-12 18:30:00,85.5,74.2,29.78,West,278,0.0,1.0,69,0.00,,,0.00,VWS V14.00,2013-06-12 22:30:00,
2013-06-12 18:45:00,85.5,74.2,29.78,West,278,0.0,2.0,69,0.00,,,0.00,VWS V14.00,2013-06-12 22:45:00,
2013-06-12 19:02:00,85.3,74.4,29.80,West,277,0.0,2.0,70,0.00,,,0.00,VWS V14.00,2013-06-12 23:02:00,
2013-06-12 19:15:00,84.7,74.3,29.78,West,278,0.0,2.0,71,0.00,,SCT045,0.00,VWS V14.00,2013-06-12 23:15:00,
2013-06-12 19:17:00,85.3,74.0,29.78,West,278,0.0,2.0,69,0.00,,,0.00,VWS V14.00,2013-06-12 23:17:00,
2013-06-12 19:45:00,83.4,73.8,29.78,WNW,292,0.0,1.0,73,0.00,,SCT045,0.00,VWS V14.00,2013-06-12 23:45:00,
2013-06-12 20:00:00,82.6,73.5,29.78,WNW,292,0.0,2.0,74,0.00,,FEW050,0.00,VWS V14.00,2013-06-13 00:00:00,
2013-06-12 20:02:00,85.3,74.4,29.78,West,278,0.0,1.0,70,0.00,,SCT045,0.00,VWS V14.00,2013-06-13 00:02:00,
2013-06-12 20:15:00,81.8,73.5,29.79,WNW,292,0.0,0.0,76,0.00,,FEW050,0.00,VWS V14.00,2013-06-13 00:15:00,
2013-06-12 20:30:00,81.2,73.3,29.78,WNW,292,0.0,0.0,77,0.00,,FEW050,0.00,VWS V14.00,2013-06-13 00:30:00,
2013-06-12 20:32:00,84.1,74.1,29.78,WNW,292,0.0,3.0,72,0.00,,SCT045,0.00,VWS V14.00,2013-06-13 00:32:00,
2013-06-12 20:45:00,80.7,73.2,29.78,WNW,292,0.0,1.0,78,0.00,,FEW050,0.00,VWS V14.00,2013-06-13 00:45:00,
2013-06-12 21:00:00,80.3,72.8,29.78,WNW,292,0.0,0.0,78,0.00,,FEW060,0.00,VWS V14.00,2013-06-13 01:00:00,
2013-06-12 21:30:00,79.8,72.7,29.79,WNW,292,0.0,1.0,79,0.00,,FEW060,0.00,VWS V14.00,2013-06-13 01:30:00,
2013-06-12 21:45:00,79.6,72.9,29.78,WNW,292,0.0,0.0,80,0.00,,FEW060,0.00,VWS V14.00,2013-06-13 01:45:00,
2013-06-12 22:00:00,79.4,72.7,29.78,WNW,292,0.0,0.0,80,0.00,,CLR,0.00,VWS V14.00,2013-06-13 02:00:00,
2013-06-12 22:17:00,80.1,72.6,29.79,WNW,292,0.0,0.0,78,0.00,,FEW060,0.00,VWS V14.00,2013-06-13 02:17:00,
2013-06-12 22:45:00,79.2,72.5,29.78,WNW,292,0.0,1.0,80,0.00,,CLR,0.00,VWS V14.00,2013-06-13 02:45:00,
2013-06-12 23:00:00,78.8,72.5,29.78,WNW,292,0.0,0.0,81,0.00,,CLR,0.00,VWS V14.00,2013-06-13 03:00:00,
2013-06-12 23:15:00,78.5,72.6,29.78,WNW,292,0.0,0.0,82,0.00,,CLR,0.00,VWS V14.00,2013-06-13 03:15:00,
2013-06-12 23:17:00,79.2,72.9,29.77,WNW,292,0.0,2.0,81,0.00,,CLR,0.00,VWS V14.00,2013-06-13 03:17:00,
2013-06-12 23:30:00,77.9,72.3,29.78,WNW,292,0.0,0.0,83,0.00,,CLR,0.00,VWS V14.00,2013-06-13 03:30:00,
2013-06-12 23:32:00,79.0,72.7,29.78,WNW,292,0.0,1.0,81,0.00,,CLR,0.00,VWS V14.00,2013-06-13 03:32:00,
2013-06-12 23:45:00,77.6,72.4,29.77,WNW,292,0.0,0.0,84,0.00,,CLR,0.00,VWS V14.00,2013-06-13 03:45:00,